TimeEDT,TemperatureF,Dew PointF,Humidity,Sea Level PressureIn,VisibilityMPH,Wind Direction,Wind SpeedMPH,Gust SpeedMPH,PrecipitationIn,Events,Conditions,WindDirDegrees,DateUTC
12:15 AM,65.3,61.2,86,29.70,10.0,NNW,3.5,-,N/A,,Overcast,340,2013-06-30 04:15:00
12:35 AM,64.9,61.2,88,29.71,10.0,North,3.5,-,N/A,,Mostly Cloudy,350,2013-06-30 04:35:00
12:55 AM,64.8,61.2,88,29.71,10.0,North,3.5,-,N/A,,Overcast,350,2013-06-30 04:55:00
1:15 AM,64.8,61.2,88,29.71,10.0,North,3.5,-,N/A,,Overcast,360,2013-06-30 05:15:00
1:35 AM,64.8,61.2,88,29.71,10.0,North,3.5,-,N/A,,Overcast,360,2013-06-30 05:35:00
1:55 AM,64.8,61.2,88,29.71,7.0,NNW,4.6,-,N/A,,Overcast,340,2013-06-30 05:55:00
2:15 AM,64.8,61.3,89,29.72,7.0,Calm,Calm,-,N/A,,Overcast,0,2013-06-30 06:15:00
2:35 AM,64.9,61.7,89,29.72,7.0,North,3.5,-,N/A,,Overcast,360,2013-06-30 06:35:00
2:55 AM,64.9,61.7,89,29.71,7.0,North,3.5,-,N/A,,Overcast,10,2013-06-30 06:55:00
3:15 AM,64.9,61.7,89,29.71,7.0,North,4.6,-,N/A,,Overcast,360,2013-06-30 07:15:00
3:35 AM,64.9,61.7,89,29.71,7.0,Calm,Calm,-,N/A,,Overcast,0,2013-06-30 07:35:00
3:55 AM,65.3,61.7,88,29.71,7.0,NNE,3.5,-,N/A,,Overcast,30,2013-06-30 07:55:00
4:15 AM,65.3,62.1,89,29.71,7.0,NE,4.6,-,N/A,,Overcast,40,2013-06-30 08:15:00
4:35 AM,65.3,61.7,88,29.71,7.0,NNE,6.9,-,N/A,Thunderstorm,Overcast,30,2013-06-30 08:35:00
4:55 AM,65.3,61.9,89,29.71,7.0,NE,5.8,-,N/A,,Overcast,40,2013-06-30 08:55:00
5:15 AM,65.5,61.9,88,29.72,7.0,NNE,6.9,-,N/A,,Overcast,20,2013-06-30 09:15:00
5:35 AM,65.5,61.7,88,29.72,7.0,North,4.6,-,N/A,,Overcast,10,2013-06-30 09:35:00
5:55 AM,65.3,61.7,88,29.73,7.0,NE,4.6,-,N/A,,Overcast,40,2013-06-30 09:55:00
6:15 AM,65.5,61.7,88,29.73,5.0,North,4.6,-,N/A,Thunderstorm,Overcast,10,2013-06-30 10:15:00
6:35 AM,65.7,61.7,87,29.74,5.0,NNE,5.8,-,N/A,,Overcast,20,2013-06-30 10:35:00
6:55 AM,65.7,61.7,87,29.74,5.0,NNE,3.5,-,N/A,,Overcast,30,2013-06-30 10:55:00
7:15 AM,65.8,61.9,87,29.75,7.0,NE,6.9,-,N/A,,Overcast,40,2013-06-30 11:15:00
7:35 AM,65.7,61.5,86,29.76,10.0,NE,5.8,-,N/A,,Overcast,50,2013-06-30 11:35:00
7:55 AM,65.5,60.8,85,29.76,10.0,ENE,8.1,-,N/A,Rain,Light Rain,60,2013-06-30 11:55:00
8:15 AM,64.9,60.3,85,29.76,10.0,ENE,5.8,-,N/A,Rain,Light Rain,60,2013-06-30 12:15:00
8:35 AM,64.9,60.8,86,29.77,10.0,NE,3.5,-,N/A,Rain,Light Rain,40,2013-06-30 12:35:00
8:55 AM,64.8,60.8,87,29.77,10.0,NNE,8.1,-,0.01,Rain,Light Rain,30,2013-06-30 12:55:00
9:15 AM,64.0,59.9,86,29.79,10.0,NNE,6.9,-,0.02,Rain,Light Rain,20,2013-06-30 13:15:00
9:35 AM,63.7,59.9,87,29.79,7.0,NNE,5.8,-,0.04,Rain,Light Rain,30,2013-06-30 13:35:00
9:55 AM,63.7,59.9,87,29.79,10.0,NNE,4.6,-,0.05,Rain,Light Rain,20,2013-06-30 13:55:00
10:15 AM,64.0,60.1,87,29.80,10.0,North,4.6,-,N/A,Rain,Rain,10,2013-06-30 14:15:00
10:35 AM,64.8,60.8,87,29.80,10.0,NNE,5.8,-,0.01,Rain,Rain,20,2013-06-30 14:35:00
10:55 AM,66.0,61.7,86,29.81,10.0,NNE,4.6,-,0.01,,Overcast,20,2013-06-30 14:55:00
11:15 AM,67.3,62.1,83,29.81,10.0,NE,5.8,-,N/A,,Overcast,40,2013-06-30 15:15:00
11:35 AM,67.6,61.5,81,29.81,10.0,NE,11.5,-,N/A,,Overcast,50,2013-06-30 15:35:00
11:55 AM,68.9,62.1,79,29.81,10.0,NE,10.4,-,N/A,,Overcast,40,2013-06-30 15:55:00
12:15 PM,68.9,61.7,78,29.81,10.0,NE,9.2,-,N/A,,Overcast,40,2013-06-30 16:15:00
12:35 PM,68.9,61.7,78,29.82,10.0,NNE,6.9,-,N/A,,Overcast,30,2013-06-30 16:35:00
12:55 PM,70.0,61.7,75,29.82,10.0,NNE,12.7,-,N/A,,Overcast,20,2013-06-30 16:55:00
1:15 PM,67.5,62.2,83,29.82,10.0,NNE,11.5,16.1,N/A,,Light Drizzle,20,2013-06-30 17:15:00
1:35 PM,66.9,61.9,84,29.83,7.0,NNE,8.1,-,N/A,,Light Drizzle,20,2013-06-30 17:35:00
1:55 PM,67.1,62.1,84,29.83,10.0,NNE,10.4,-,N/A,Rain,Light Rain,20,2013-06-30 17:55:00
2:15 PM,68.9,62.8,81,29.82,10.0,NNE,9.2,-,N/A,,Overcast,20,2013-06-30 18:15:00
2:35 PM,72.0,63.0,73,29.82,10.0,NNE,9.2,-,N/A,,Mostly Cloudy,20,2013-06-30 18:35:00
2:55 PM,71.1,62.2,74,29.81,10.0,NNE,13.8,19.6,N/A,,Mostly Cloudy,20,2013-06-30 18:55:00
3:35 PM,71.8,61.9,71,29.82,10.0,NE,11.5,17.3,N/A,,Overcast,40,2013-06-30 19:35:00
3:55 PM,72.0,61.9,70,29.83,10.0,ENE,12.7,-,N/A,,Mostly Cloudy,60,2013-06-30 19:55:00
4:15 PM,72.1,61.9,70,29.83,10.0,NNE,16.1,23.0,N/A,,Mostly Cloudy,30,2013-06-30 20:15:00
4:35 PM,71.6,61.5,70,29.83,10.0,NNE,15.0,-,N/A,,Overcast,30,2013-06-30 20:35:00
4:55 PM,72.3,61.5,69,29.83,10.0,NE,12.7,20.7,N/A,,Overcast,50,2013-06-30 20:55:00
5:35 PM,73.0,61.9,68,29.83,10.0,NE,10.4,-,N/A,,Overcast,50,2013-06-30 21:35:00
5:55 PM,71.8,61.9,71,29.83,10.0,ENE,12.7,17.3,N/A,,Overcast,60,2013-06-30 21:55:00
6:15 PM,71.6,61.7,71,29.84,10.0,NE,13.8,-,N/A,,Light Drizzle,40,2013-06-30 22:15:00
6:35 PM,71.8,62.1,71,29.85,10.0,ENE,12.7,-,N/A,,Overcast,60,2013-06-30 22:35:00
6:55 PM,70.2,62.6,77,29.85,10.0,NE,8.1,-,N/A,,Overcast,50,2013-06-30 22:55:00
7:15 PM,70.3,62.6,76,29.85,10.0,NE,9.2,-,N/A,,Scattered Clouds,40,2013-06-30 23:15:00
7:35 PM,70.7,61.7,73,29.86,10.0,NNE,8.1,-,N/A,,Scattered Clouds,30,2013-06-30 23:35:00
7:55 PM,70.7,60.3,69,29.87,10.0,NNE,13.8,19.6,N/A,,Mostly Cloudy,30,2013-06-30 23:55:00
8:15 PM,70.0,59.9,70,29.87,10.0,NNE,12.7,18.4,N/A,,Overcast,30,2013-07-01 00:15:00
8:35 PM,69.4,59.2,70,29.87,10.0,NNE,11.5,17.3,N/A,,Overcast,20,2013-07-01 00:35:00
8:55 PM,68.9,59.2,71,29.88,10.0,NNE,10.4,-,N/A,,Mostly Cloudy,30,2013-07-01 00:55:00
9:15 PM,68.9,59.2,71,29.88,10.0,NNE,8.1,-,N/A,,Overcast,30,2013-07-01 01:15:00
9:35 PM,68.5,59.5,73,29.89,10.0,NNE,5.8,-,N/A,,Overcast,20,2013-07-01 01:35:00
9:55 PM,68.2,59.9,75,29.89,10.0,NNE,5.8,-,N/A,,Overcast,20,2013-07-01 01:55:00
10:15 PM,68.0,59.9,75,29.89,10.0,NNE,5.8,-,N/A,,Light Drizzle,30,2013-07-01 02:15:00
10:35 PM,68.2,59.4,73,29.89,10.0,NNE,6.9,-,N/A,Rain,Light Rain,30,2013-07-01 02:35:00
10:55 PM,68.4,59.0,72,29.90,10.0,NE,8.1,-,N/A,,Overcast,40,2013-07-01 02:55:00
11:15 PM,68.2,58.6,71,29.90,10.0,NE,5.8,-,N/A,,Mostly Cloudy,40,2013-07-01 03:15:00
11:35 PM,68.2,58.5,71,29.91,10.0,NNE,6.9,-,N/A,,Mostly Cloudy,30,2013-07-01 03:35:00
11:55 PM,68.2,58.5,71,29.91,10.0,NE,8.1,-,N/A,,Overcast,40,2013-07-01 03:55:00